TimeEDT,TemperatureF,Dew PointF,Humidity,Sea Level PressureIn,VisibilityMPH,Wind Direction,Wind SpeedMPH,Gust SpeedMPH,PrecipitationIn,Events,Conditions,WindDirDegrees,DateUTC
12:54 AM,64.4,62.6,94,29.92,9.0,SSW,11.5,-,N/A,,Overcast,200,2012-10-14 04:54:00
1:54 AM,64.9,62.1,90,29.91,9.0,South,12.7,-,N/A,,Overcast,190,2012-10-14 05:54:00
2:54 AM,64.9,62.1,90,29.90,9.0,SSW,10.4,-,N/A,,Overcast,210,2012-10-14 06:54:00
3:54 AM,66.0,62.1,87,29.88,9.0,SSW,11.5,-,N/A,,Overcast,200,2012-10-14 07:54:00
4:54 AM,66.0,62.1,87,29.87,10.0,South,17.3,25.3,N/A,,Overcast,190,2012-10-14 08:54:00
5:54 AM,64.9,61.0,87,29.85,10.0,South,13.8,-,N/A,,Overcast,180,2012-10-14 09:54:00
6:54 AM,64.9,61.0,87,29.83,10.0,South,16.1,-,N/A,,Overcast,190,2012-10-14 10:54:00
7:54 AM,64.9,61.0,87,29.81,9.0,South,17.3,-,N/A,,Overcast,180,2012-10-14 11:54:00
8:54 AM,66.0,60.1,81,29.78,9.0,South,20.7,29.9,N/A,,Overcast,180,2012-10-14 12:54:00
9:15 AM,66.2,60.8,83,29.78,9.0,South,18.4,28.8,N/A,,Overcast,180,2012-10-14 13:15:00
9:54 AM,66.0,60.1,81,29.75,9.0,South,20.7,36.8,0.00,Rain,Light Rain,180,2012-10-14 13:54:00
10:11 AM,66.2,60.8,83,29.73,9.0,South,27.6,38.0,0.00,Rain,Light Rain,170,2012-10-14 14:11:00
10:54 AM,66.9,59.0,76,29.70,10.0,South,23.0,36.8,0.00,,Overcast,180,2012-10-14 14:54:00
11:06 AM,66.2,59.0,78,29.71,10.0,South,26.5,38.0,N/A,,Overcast,190,2012-10-14 15:06:00
11:54 AM,68.0,57.9,70,29.70,10.0,South,31.1,39.1,N/A,,Overcast,190,2012-10-14 15:54:00
12:54 PM,68.0,57.9,70,29.69,10.0,South,28.8,36.8,N/A,,Overcast,190,2012-10-14 16:54:00
1:54 PM,70.0,59.0,68,29.66,10.0,South,24.2,35.7,N/A,,Overcast,190,2012-10-14 17:54:00
2:54 PM,72.0,59.0,64,29.62,10.0,SSW,29.9,39.1,N/A,,Mostly Cloudy,200,2012-10-14 18:54:00
3:54 PM,73.4,57.2,57,29.59,10.0,SSW,31.1,43.7,N/A,,Mostly Cloudy,210,2012-10-14 19:54:00
4:54 PM,72.0,57.9,61,29.56,10.0,SSW,31.1,38.0,N/A,,Mostly Cloudy,200,2012-10-14 20:54:00
5:54 PM,71.1,55.0,57,29.55,10.0,SW,26.5,41.4,0.00,,Scattered Clouds,220,2012-10-14 21:54:00
6:54 PM,69.1,53.1,57,29.54,10.0,SSW,26.5,39.1,N/A,,Scattered Clouds,210,2012-10-14 22:54:00
7:54 PM,63.0,57.0,81,29.56,3.0,West,26.5,36.8,0.02,Rain,Heavy Rain,260,2012-10-14 23:54:00
7:56 PM,62.6,57.2,82,29.57,1.8,WSW,29.9,38.0,0.04,Rain,Heavy Rain,240,2012-10-14 23:56:00
8:04 PM,60.8,57.2,88,29.57,3.0,WSW,24.2,38.0,0.12,Rain,Rain,240,2012-10-15 00:04:00
8:44 PM,60.8,57.2,88,29.57,4.0,WSW,19.6,29.9,0.13,Rain,Light Rain,240,2012-10-15 00:44:00
8:54 PM,59.0,55.9,90,29.58,7.0,West,26.5,38.0,0.15,Rain,Light Rain,260,2012-10-15 00:54:00
9:54 PM,55.0,50.0,83,29.63,10.0,West,24.2,42.6,0.00,Rain,Light Rain,260,2012-10-15 01:54:00
10:54 PM,52.0,48.9,89,29.69,10.0,West,19.6,38.0,0.00,,Overcast,270,2012-10-15 02:54:00
11:54 PM,52.0,46.9,83,29.73,10.0,West,16.1,26.5,N/A,,Overcast,270,2012-10-15 03:54:00